GFSMW_con_mlcape_273.txt.gz
CAPE
0 0 0 0 0 0 0 0 0 0 16 436 735 686 792 600 423 635 923 927 959 268 643 742 77 1050 973 1360 746 232 143 380 57 0 0 19 294 294 250 143 56 33 1
0 0 0 0 0 0 0 0 0 9 82 431 774 840 979 935 969 859 876 543 461 921 822 404 157 1023 1429 1095 1118 635 113 146 173 48 0 0 13 21 197 178 108 47 7
0 0 0 0 0 0 0 0 0 18 165 323 665 697 809 481 888 910 748 396 402 715 804 598 375 1194 1539 1159 1203 996 559 192 301 0 9 0 2 0 0 0 14 78 113
0 0 0 0 0 0 0 0 0 0 141 361 472 349 453 446 476 657 685 610 679 564 869 753 822 1014 1448 1419 1515 1158 1099 443 77 90 0 0 0 0 0 0 0 5 29
0 0 0 0 0 0 0 0 0 19 246 340 444 232 253 402 375 382 527 1001 526 617 868 854 993 1227 1373 1407 1483 1337 1234 998 305 192 184 0 0 0 0 2 2 0 0
0 0 0 0 0 0 0 0 0 11 374 382 301 190 81 297 289 221 124 420 849 802 418 698 862 1015 1429 1760 1379 1422 1502 1386 631 335 277 0 0 6 4 5 4 0 0
0 0 0 0 0 0 0 0 0 0 86 310 217 159 22 153 314 387 350 284 481 503 581 297 1217 1130 1323 1659 1458 1460 1453 1643 1119 528 263 46 0 7 2 6 2 0 0
0 0 0 0 0 0 0 0 0 0 0 90 136 152 98 0 37 323 259 293 249 249 362 205 602 1575 1513 1566 1318 1305 1036 1320 1316 815 368 80 27 14 4 0 5 0 0
0 0 4 0 0 0 0 0 1 3 0 1 161 179 155 86 8 30 84 110 58 8 6 581 683 561 1150 790 625 709 709 961 870 834 565 170 73 34 23 12 2 0 0
19 1 2 0 0 0 1 0 14 29 21 20 95 178 215 200 345 484 391 172 127 463 615 455 341 249 259 262 270 267 456 635 636 398 248 255 137 72 25 21 4 1 0
44 29 16 7 0 3 20 15 6 22 44 93 152 244 331 486 747 757 609 380 232 345 348 286 136 50 117 346 694 848 826 741 468 396 201 232 127 101 25 33 0 0 0
249 58 49 18 43 0 17 32 23 52 149 272 369 362 583 745 1091 1079 843 750 413 162 193 190 310 591 994 1337 1293 681 612 662 447 387 417 192 171 123 44 10 0 0 0
421 189 8 3 0 0 0 0 22 112 297 586 669 709 751 954 1176 1148 1137 1010 804 663 671 1021 1414 1522 1534 1203 860 985 989 699 449 551 481 321 91 146 39 8 0 0 0
466 272 169 36 45 139 145 95 164 247 454 739 877 950 1012 1133 1136 1363 1436 1499 1530 1398 1172 1133 1020 897 800 699 501 591 685 625 634 698 717 439 121 125 36 3 0 0 0
454 431 414 385 612 695 766 720 787 977 1256 1350 1373 1317 1395 1532 1593 1521 1226 969 921 774 609 533 380 322 394 470 619 723 868 767 645 624 708 484 136 124 51 0 0 0 0
623 687 700 933 957 954 1172 1400 1339 1366 1641 1735 1672 1542 1555 1469 1302 1048 836 789 612 379 359 249 360 394 564 844 831 820 684 489 450 574 374 300 233 124 0 0 0 0 0
883 945 1033 1197 1240 1238 1216 1253 1352 1318 1420 1447 1201 1040 896 870 684 455 600 652 453 547 564 697 641 894 939 995 737 199 59 57 383 452 151 96 46 52 3 0 0 0 0
1114 1209 1341 1402 1440 1259 1155 928 937 1211 1265 1123 891 630 713 814 619 533 501 525 592 614 448 439 911 1136 1126 489 209 27 439 436 485 310 49 29 0 0 0 0 0 0 0
1312 1518 1604 1581 1456 1335 1266 1165 965 873 845 955 943 833 639 463 321 286 307 184 304 170 171 325 258 388 20 1 10 311 449 453 296 116 24 0 0 0 0 0 0 0 0
1837 1807 1907 1699 1599 1307 1128 909 617 491 446 486 527 563 342 153 91 70 55 125 323 24 12 40 1 2 1 0 0 12 52 79 191 57 0 0 0 0 0 0 0 0 0
1930 1890 1864 1754 1322 1039 758 590 304 225 189 236 201 177 9 0 0 0 0 0 0 0 0 0 0 0 0 0 0 0 0 0 18 42 12 1 0 0 0 0 0 0 0
1954 1631 1620 1350 906 664 511 313 171 39 104 112 4 0 0 0 0 0 0 0 0 0 0 0 1 1 0 0 0 0 0 0 2 33 8 0 0 0 0 0 0 0 0
1794 1383 1257 857 479 256 308 222 3 4 18 8 0 0 0 0 0 0 0 0 0 0 0 0 0 0 0 0 0 0 0 0 0 0 0 0 0 0 0 0 0 0 0
1473 819 762 648 312 76 13 33 0 0 0 0 0 0 0 0 0 0 0 0 0 0 0 0 0 0 0 0 0 0 0 0 0 0 0 0 0 0 0 0 0 0 0
607 523 566 233 65 5 0 0 0 0 0 0 0 0 0 0 0 0 0 0 0 0 0 0 0 0 0 0 0 0 0 0 0 0 0 0 0 0 0 0 0 0 0
68 90 44 35 0 0 0 0 0 0 0 0 0 0 0 0 0 0 0 0 0 0 0 0 0 0 0 0 0 0 0 0 0 0 0 0 0 0 0 0 0 0 0

GFSMW_con_mlcape_276.txt.gz
CAPE
0 0 0 0 0 0 0 0 0 0 13 182 627 745 631 726 518 418 526 849 791 940 343 432 211 775 981 1108 969 689 211 161 71 36 0 39 267 208 152 147 113 39 38
0 0 0 0 0 0 0 0 0 0 0 89 503 600 715 830 864 809 775 788 625 687 489 674 146 628 1399 1106 1089 902 574 96 187 61 0 0 0 0 95 115 82 76 50
0 0 0 0 0 0 0 0 0 0 0 6 475 793 863 555 619 790 737 691 372 268 793 660 173 564 1139 1163 922 876 774 620 255 4 55 0 0 0 0 0 8 69 103
0 0 0 0 0 0 0 0 0 0 0 58 320 563 472 630 408 601 675 652 545 544 764 694 599 590 892 1182 888 977 828 773 556 107 89 0 0 0 0 0 0 0 19
0 0 0 0 0 0 0 0 0 0 0 35 242 292 264 229 348 347 454 296 852 517 603 761 951 967 1072 1128 1124 952 590 958 734 391 211 40 0 0 13 1 24 1 0
0 0 0 0 0 0 0 0 0 0 0 0 137 292 272 108 178 315 248 83 481 682 550 458 634 782 795 1146 1163 1170 857 780 642 457 324 77 14 16 16 11 0 11 10
0 0 0 0 0 0 0 0 0 0 0 0 169 288 259 139 39 174 281 271 215 399 589 311 275 734 1022 1081 1137 1166 899 865 707 364 264 73 15 33 16 3 8 0 5
0 0 0 0 0 0 0 0 0 0 0 0 123 286 277 169 99 140 242 327 243 237 205 139 104 288 996 1184 1089 973 958 817 790 413 295 91 74 0 34 6 1 13 1
0 0 0 0 0 0 0 0 0 0 0 0 3 103 184 158 103 70 65 200 146 94 101 109 394 466 634 760 747 672 633 457 463 412 284 66 24 25 20 1 0 10 13
0 0 0 0 0 0 0 0 0 0 0 0 0 8 71 170 185 118 103 114 264 201 297 531 442 365 214 137 144 129 128 380 499 282 338 189 75 6 39 5 1 2 0
56 0 0 0 0 0 0 0 0 0 0 1 7 23 82 167 268 289 335 553 567 363 256 313 266 180 103 214 567 839 936 541 522 499 384 232 154 75 43 19 12 0 0
159 66 0 12 0 0 0 0 0 0 0 25 56 109 169 254 304 396 602 916 824 650 381 243 191 264 625 1190 1462 1149 770 616 746 619 371 359 212 109 106 51 49 0 0
217 30 3 28 15 1 0 0 0 0 0 34 104 176 253 392 450 574 891 1233 1122 885 762 757 981 1443 1341 1046 855 666 574 663 743 703 633 591 404 184 55 34 22 0 0
302 160 65 83 33 10 4 11 25 37 72 177 273 352 460 616 733 946 1274 1343 1349 1396 1425 1197 1106 907 659 481 354 329 487 666 857 835 771 725 521 211 83 53 3 0 0
407 307 259 216 121 43 11 0 5 77 161 264 363 439 763 1053 1182 1355 1368 1527 1385 1078 774 725 524 436 466 500 708 721 879 857 639 480 581 739 710 228 128 53 1 0 0
564 629 529 473 479 377 276 266 247 191 268 370 559 1046 1395 1437 1454 1338 1204 1096 894 579 642 591 612 639 951 818 648 506 611 151 116 411 522 459 452 176 58 7 0 0 0
771 869 778 758 769 746 713 640 642 773 927 1021 1183 1424 1478 1409 1311 1127 871 592 620 648 529 458 654 724 54 4 94 40 95 365 468 465 337 216 82 79 9 0 0 0 0
826 901 888 1001 1001 1049 1157 1105 1104 1163 1249 1302 1278 1257 1255 1125 823 752 668 620 483 320 269 231 123 3 2 0 30 150 440 417 237 93 63 58 25 6 0 0 0 0 0
887 973 1168 1231 1148 1150 1110 1288 1375 1373 1320 1180 1081 1057 1030 937 751 635 393 287 142 148 73 0 0 1 0 0 0 21 84 84 74 21 1 0 0 0 0 0 0 0 0
1675 1402 1452 1483 1300 1211 1046 1096 1180 1257 1303 1177 1023 772 597 492 364 201 149 195 42 15 0 0 0 1 0 0 0 0 0 9 19 29 0 0 0 0 0 0 0 0 0
1545 1864 1701 1571 1342 1198 1106 1190 1070 1072 945 862 741 463 225 155 72 10 15 0 0 0 0 0 0 0 0 0 0 0 0 0 3 19 13 0 0 0 0 0 0 0 0
1410 1986 1734 1524 1222 1130 1151 1052 911 503 522 469 270 13 0 0 0 0 0 0 0 0 0 0 0 2 0 0 0 0 0 0 0 0 0 0 0 0 0 0 0 0 0
1505 1765 1733 1382 1293 1105 936 798 366 302 246 188 37 0 0 0 0 0 0 0 0 0 0 0 0 0 0 0 0 0 0 0 0 0 0 0 0 0 0 0 0 0 0
811 1514 1344 1143 1041 768 540 399 78 74 29 0 0 0 0 0 0 0 0 0 0 0 0 0 0 0 0 0 0 0 0 0 0 0 0 0 0 0 0 0 0 0 0
901 991 981 935 643 81 144 29 22 31 14 5 1 0 0 0 0 0 0 0 0 0 0 0 0 0 0 0 0 0 0 0 0 0 0 1 0 0 0 0 0 0 0
509 512 270 103 37 13 1 0 0 7 6 14 2 1 0 0 0 0 0 0 0 0 0 0 0 0 0 0 0 0 0 0 0 0 1 1 0 0 1 0 0 0 0

GFSMW_con_mlcape_279.txt.gz
CAPE
0 0 0 0 0 0 0 0 0 131 352 512 708 1013 1241 1276 1312 996 1033 1200 1521 1545 1564 1071 1242 719 1567 1766 2075 1425 834 747 592 350 274 190 466 387 253 165 135 42 55
0 0 0 0 0 0 0 2 0 26 120 305 630 1178 1182 1530 1387 1471 1449 1615 1361 1467 1136 1181 1371 438 1875 1920 1790 1354 1179 933 605 354 227 8 5 11 117 151 134 33 89
0 0 0 0 0 0 0 0 0 0 72 130 634 1034 1277 1239 1021 1520 1481 1299 1155 839 1048 1353 1280 794 1553 1705 1270 1311 791 1077 1176 344 249 186 110 67 17 22 16 22 99
0 0 0 0 0 0 0 0 0 0 20 141 501 891 916 1199 1043 1019 1357 1472 1384 1178 1186 1402 1287 1314 1400 1630 1982 1635 1126 837 826 747 323 176 94 25 35 66 16 30 68
0 0 0 0 0 0 0 0 0 0 0 27 252 726 985 903 989 960 982 1146 931 1215 1179 1252 1441 1658 1808 1866 1882 1534 1488 1034 807 469 322 96 28 48 32 26 26 30 27
0 0 0 0 0 0 0 0 0 0 0 32 322 525 630 795 723 790 845 907 774 1160 1325 1201 1212 1165 1485 1745 1854 1924 1576 1527 955 529 159 14 0 0 11 3 17 53 51
0 0 0 0 0 0 0 0 0 0 0 39 245 408 638 823 744 682 583 817 940 918 1161 1062 1060 947 864 1358 1800 1923 1458 1231 836 585 205 1 0 0 0 11 0 48 27
0 0 0 0 0 0 0 0 0 0 0 0 77 265 549 851 883 799 701 773 1007 974 826 517 383 288 624 1093 1746 1989 1643 1208 877 1152 312 55 0 0 1 5 8 9 7
11 8 0 0 0 0 0 0 0 0 0 0 8 259 502 799 881 805 742 638 632 656 470 598 589 746 994 1143 1273 1288 1124 859 520 547 361 376 45 9 2 0 10 23 2
17 24 4 0 0 0 0 0 0 0 0 0 7 61 260 513 742 797 626 598 510 544 837 697 886 1026 1080 903 606 538 797 1214 1636 1257 969 965 225 67 28 10 17 14 0
108 47 62 3 0 0 0 0 0 9 15 5 18 85 239 299 474 518 696 710 776 961 1090 813 568 722 741 594 670 1497 2170 1996 1579 1052 1080 1042 935 133 110 47 41 0 1
182 61 55 54 11 4 5 8 20 68 110 114 118 166 311 458 501 579 762 924 1027 1483 1341 1163 758 800 975 1620 2068 1736 1729 1356 1313 1298 1511 1502 1058 398 226 117 63 0 0
36 265 115 119 117 55 66 76 106 132 225 262 245 304 391 520 626 738 857 1152 1402 1681 1652 1398 1428 1873 2365 1860 1542 1137 1102 1325 1345 1452 1792 1785 1405 707 523 193 29 0 0
57 376 386 338 259 220 225 212 214 268 376 383 422 438 503 634 844 1056 1199 1419 1898 1636 1693 2142 1933 1551 1313 1173 1320 1370 1470 1634 1753 1737 1394 1498 1543 923 589 251 0 0 0
10 476 539 527 379 361 344 315 309 369 421 468 498 561 795 1087 1259 1483 1685 2091 2112 2103 1903 1467 1332 1320 1317 750 566 906 963 1020 855 943 1292 1215 969 1061 765 103 1 0 0
153 556 658 593 514 483 420 395 372 375 440 600 656 893 1201 1434 1601 1811 2210 2135 1589 1367 1125 1303 1148 774 341 0 36 235 610 1099 1025 711 834 477 431 374 161 26 0 0 0
405 642 819 907 799 769 560 513 459 497 608 736 939 1185 1434 1721 2015 1993 1907 1785 1439 1383 1096 636 253 2 0 0 2 188 1055 466 181 92 103 161 25 48 4 0 0 0 0
773 1022 1114 1222 1303 1063 933 861 1067 1013 1011 1152 1292 1652 1888 2024 2029 1985 1858 1603 1368 1066 422 57 0 0 0 0 9 308 698 476 198 37 11 7 2 0 2 0 0 0 0
645 1263 1522 1559 1635 1360 1332 1319 1231 1380 1427 1433 1578 1867 2081 2001 1909 1839 1648 1309 818 404 98 0 0 0 0 0 0 27 99 83 212 58 3 0 0 0 0 0 0 0 0
653 785 2140 1873 1855 1595 1438 1695 1736 1733 1740 1828 1994 2012 1970 1856 1716 1553 1197 737 544 158 0 0 1 0 0 0 0 0 0 0 11 72 3 0 0 0 0 0 0 0 0
1036 1193 2264 2274 1985 1820 1850 1980 1901 1969 2056 1905 1845 1743 1615 1500 1237 911 602 453 349 82 1 0 1 3 1 0 0 0 0 0 1 1 2 0 0 0 0 0 0 0 0
783 1535 1748 2281 2185 1786 1758 1961 2034 1858 1709 1603 1469 1163 943 662 448 446 335 286 153 8 0 0 1 2 2 0 0 0 0 0 2 0 1 0 0 0 0 0 0 0 0
284 1518 2057 1967 1986 1792 1734 1883 1595 1287 1298 1132 771 626 232 42 24 36 10 4 4 1 3 0 0 0 0 0 0 0 0 0 1 1 1 0 0 0 0 0 0 0 0
130 546 1822 2001 1869 1664 1394 1658 993 916 830 614 241 68 3 1 0 0 0 0 0 0 0 0 0 0 0 0 0 1 0 0 0 0 2 0 0 0 1 0 0 0 0
206 321 833 1369 1633 1196 1108 720 603 595 488 258 12 2 0 0 0 0 0 0 0 0 0 0 0 0 0 0 0 0 0 0 0 0 2 1 0 0 2 3 0 0 0
28 280 449 728 533 273 243 150 292 278 71 15 1 0 0 0 0 0 0 0 0 0 0 0 0 0 0 0 0 0 0 0 0 0 1 2 2 2 1 2 1 0 0

GFSMW_con_mlcape_285.txt.gz
CAPE
24 53 80 58 73 106 114 215 342 511 667 908 1088 923 745 871 733 784 958 1216 1118 1050 1437 1000 927 1141 967 1709 1858 1659 981 918 1490 826 80 215 399 280 229 140 235 266 181
0 2 28 55 55 102 227 340 410 584 827 740 786 869 1123 1186 1097 1142 1639 1131 1329 1206 1401 1741 1412 1811 1418 2298 2436 1969 1835 1150 2085 967 284 71 179 101 47 0 0 36 31
10 17 14 14 30 57 145 325 621 586 944 609 583 790 1289 1455 1240 585 420 1250 1709 1520 1635 1905 2212 2408 2372 1022 2667 1424 2321 1277 1153 1539 530 213 32 44 0 0 0 0 4
0 17 35 40 26 28 78 280 658 897 939 1012 474 852 1099 1240 1355 1180 926 1684 1559 1726 1761 2117 2625 2686 2233 1925 1770 1894 2607 1507 1470 1263 1172 616 194 64 0 0 0 0 1
242 49 19 19 32 19 27 95 590 1001 1103 1085 854 629 1220 1156 1195 503 1878 1826 1958 2089 1611 1559 2493 2827 2580 2189 2373 2475 2229 2234 1542 1022 1109 1001 438 124 0 0 0 0 0
332 301 143 41 4 25 40 77 586 1255 1309 1214 1229 1044 1588 1307 1456 936 846 709 627 1788 1925 1857 2122 2377 2617 2517 2329 2304 2213 1950 1826 1192 1208 1016 965 885 127 0 1 0 0
292 352 301 244 2 0 16 69 455 1243 1305 1084 1046 1114 1292 1972 1614 1933 1532 1003 463 389 306 1857 2415 1747 1814 1820 1657 1683 2040 1563 1542 1723 1236 1182 918 995 142 0 0 0 0
266 364 399 328 174 0 26 99 341 1056 1350 1152 1136 1267 1372 1107 1241 1410 1209 882 662 544 644 818 1316 1213 1284 1036 1180 884 1110 1429 1236 1453 1310 1460 1350 1286 591 122 0 1 1
322 396 462 371 193 94 38 27 148 936 1322 1110 1269 1454 1624 1501 956 1166 1493 1470 1584 922 561 526 959 914 1102 838 1224 1003 1345 1230 1290 1539 1813 1892 1640 1531 1306 207 21 40 1
537 520 505 382 273 229 243 245 284 705 1128 996 1098 1358 1476 1932 1709 1527 1603 1407 957 676 863 1267 1162 1357 1333 1057 1293 1102 1308 1764 1933 2036 1828 1845 1644 1495 1613 362 130 195 0
462 665 670 666 610 507 487 366 396 511 1016 989 957 1126 1366 1588 1860 1595 1574 1672 1532 1738 2103 2298 2163 1930 1864 1762 2154 2630 2399 1886 1916 1832 1476 1621 1561 1552 1255 402 172 64 0
0 6 788 707 793 817 730 638 546 488 799 1214 1234 1244 1457 1633 1667 1966 1576 1768 2173 2382 2588 2802 2675 2369 2491 2892 3030 2715 2464 2051 1963 1672 1831 2028 1723 1971 1592 627 207 8 0
18 9 0 963 820 857 933 926 888 796 770 1334 1480 1722 1735 1932 2086 2337 2474 2414 2525 2610 2579 2621 2584 2958 3099 3088 2614 2504 2351 1919 1998 2192 1990 1984 2003 2085 1644 1081 77 2 0
305 487 799 1076 1306 1179 1191 1131 1057 1016 989 1429 1791 1937 2095 2298 2285 2937 2820 2837 2927 2747 2778 2792 2531 3238 3328 2786 2733 2147 1864 2152 2230 2318 1829 1655 1374 1927 1602 368 9 0 0
841 1147 1639 1787 1827 1793 1782 1773 1396 1303 1234 1613 1761 2214 2351 2148 2348 2526 2754 2843 3078 2991 3002 3014 3022 3434 2930 791 840 1175 2039 2195 1849 1428 1311 1362 679 576 1050 102 2 0 0
807 1041 1186 1914 2253 2211 2250 2156 2031 1964 1687 2191 2104 2458 2690 2674 2626 2694 2842 3057 3109 3289 3294 3191 3268 3225 1787 63 138 232 1896 1727 1318 1257 1285 821 621 244 140 0 0 0 0
317 786 818 1202 2440 2532 2493 2631 2531 2471 2452 2818 2508 2763 3085 3045 3176 3211 3218 3287 3421 3570 3598 3118 2994 2051 852 6 119 355 1531 1451 1174 1063 806 763 220 1 0 0 0 0 0
32 400 797 1295 2514 2544 2678 2576 2628 2802 2823 2780 2824 3161 3343 3372 3479 3472 3476 3736 3836 3598 3245 2682 2096 1671 0 0 1 231 1075 1093 695 581 558 458 298 1 1 0 0 0 0
0 2 118 718 1397 2874 2947 3123 2707 2633 2864 2903 3088 3212 3405 3454 3521 3560 3926 3993 3498 3135 2411 1733 1413 841 0 0 0 188 1264 824 549 319 26 126 125 0 0 4 0 0 0
0 0 0 113 767 1373 2299 3035 3053 2501 2664 2829 3115 3343 3479 3600 3698 4046 3908 3650 3010 2181 1755 1001 624 180 0 0 0 0 581 817 505 98 63 0 0 0 0 4 0 0 0
0 0 0 0 602 1225 1830 2913 3032 2988 2858 2940 2936 3437 3830 4163 4025 3885 3064 2578 2312 1577 938 309 173 23 21 0 0 0 63 0 25 102 77 0 0 0 0 0 9 2 0
0 0 0 0 11 690 1524 1780 2841 3046 3033 3165 3230 3794 4022 3775 3696 2948 2401 2227 1415 791 314 13 9 13 0 0 0 0 0 0 31 44 54 0 0 0 0 0 0 0 0
0 0 0 0 0 103 863 1871 2065 3008 2610 2322 2583 2659 3040 3354 2758 2259 2074 1580 869 543 174 5 0 0 0 0 0 0 0 0 1 0 0 0 0 0 0 0 0 0 0
0 0 0 0 0 16 278 905 2061 2609 2369 1726 1106 0 2150 2276 1815 1825 1812 1555 1011 759 290 2 0 0 0 0 0 0 0 0 0 0 0 0 0 0 0 0 0 0 3
0 0 0 0 0 67 177 567 1534 2010 2123 1566 1154 773 686 1715 1532 220 676 161 0 194 178 0 0 0 0 0 0 0 0 0 0 0 1 0 0 0 4 4 2 3 0
0 2 1 0 0 34 137 369 836 1849 1853 1395 929 836 602 47 4 0 0 0 0 0 0 0 0 0 0 0 0 0 0 0 0 0 2 2 2 1 0 1 2 33 1

GFSMW_con_mlcape_291.txt.gz
CAPE
16 0 0 0 0 0 107 67 404 690 936 1037 755 754 929 1118 773 1195 666 882 599 226 761 1269 957 1496 1441 1471 1810 1184 1058 1106 850 1091 603 372 371 199 49 0 0 0 0
8 8 16 0 3 13 18 124 245 796 956 867 1046 1238 731 1012 893 802 931 1674 1332 723 843 966 1835 1855 1945 1898 1608 685 837 843 897 771 660 274 190 111 0 0 0 0 0
0 2 37 1 0 0 34 79 332 631 464 625 786 1145 1290 866 1281 624 65 757 731 857 1152 922 1287 1556 1951 2044 1436 1355 1190 816 1117 1067 865 531 221 343 74 0 0 0 0
0 15 16 51 43 35 75 99 139 629 524 356 709 975 635 683 935 1441 681 906 1161 537 723 1182 1299 2060 2421 1943 2258 1901 1649 1246 784 999 1365 783 554 430 231 13 0 0 0
0 14 55 57 159 133 174 233 274 524 723 536 488 639 864 650 1031 1306 763 968 800 1139 1330 1425 1932 2488 1982 2462 2372 1825 1724 1205 1459 1485 1193 710 572 401 286 65 52 0 0
3 69 104 85 110 435 354 431 375 500 818 671 539 592 730 867 529 1314 1778 1627 1371 1397 1278 1293 1723 1721 2395 2217 1646 1322 1314 860 1483 1006 830 565 343 294 279 160 76 0 0
20 102 154 156 116 196 503 696 584 488 613 975 848 558 321 980 1101 822 1527 1994 854 763 1112 1950 2231 2129 2152 1629 1175 1149 882 980 1288 1010 861 866 695 504 357 152 77 0 1
100 87 173 252 190 187 263 499 873 650 837 725 1025 1032 650 418 1017 2232 1798 1666 1480 1430 1392 1065 808 661 600 958 1328 1207 923 1586 1125 1029 1077 990 826 898 548 320 40 0 0
452 251 271 302 256 215 225 258 844 794 935 928 1109 1438 1287 802 410 1292 1739 1257 1246 982 903 1159 971 1113 828 1259 1464 1221 1128 2041 1654 1642 1467 1257 1372 1310 1052 397 41 0 0
671 567 406 330 303 229 246 263 715 867 993 1246 1205 1499 1720 1380 854 768 921 1332 1230 1065 1779 1184 942 776 1468 1747 1691 1787 2257 2213 2284 2175 1720 1356 1545 1338 913 352 35 0 0
645 870 740 583 462 288 268 416 851 1047 1352 1430 1579 1586 1635 1858 1630 955 1249 2053 2270 2113 1684 1391 1444 1255 2055 2264 2417 2339 2422 2422 1677 2046 1687 1788 1787 1202 640 131 101 0 0
895 1274 1440 1734 1480 511 296 328 957 1165 1209 1317 1523 1660 1753 1892 1913 1724 971 1408 1716 1592 1697 1549 1700 2187 2783 2585 2776 2343 2398 1514 1944 1789 1612 1187 1131 1008 513 133 16 0 0
819 911 867 903 1607 2294 1558 358 409 962 1191 1368 1430 1538 1397 1802 1792 1847 1747 1582 1493 1310 1405 2007 2281 2619 2895 2734 2955 2515 1795 1649 1911 1290 914 556 311 1041 566 55 0 0 0
831 767 641 1067 1476 2091 2477 1716 471 545 1217 1455 1388 1429 1388 1530 1608 1800 1906 1960 1852 1958 2069 2222 2898 3249 3105 3017 2289 1932 1116 1903 1198 1180 716 249 397 672 416 35 0 0 0
892 824 802 826 1556 2400 2438 2904 2503 764 1167 1399 1465 1389 1523 1594 1659 1701 1948 2205 2199 2245 2509 2840 3034 2959 2641 1742 1486 777 1653 1189 1287 881 374 171 447 528 217 2 0 0 0
385 338 387 271 702 1209 1540 2230 2885 3080 1671 1581 1620 1544 1811 1707 1758 1737 1871 2224 2384 2425 2787 2897 3301 2526 1618 827 529 425 1549 1244 918 553 275 95 87 92 2 0 0 0 0
3 0 0 0 880 1118 1407 1589 1915 2925 3156 2624 2264 2067 1875 1974 2045 2045 2035 2036 2390 3112 2762 3091 2965 2157 1055 341 333 454 1097 919 457 304 220 40 0 0 0 0 0 0 0
0 0 0 0 269 240 496 1455 1169 2091 2748 3294 3377 3077 2702 2268 2489 2526 2473 2411 2599 2912 2882 3271 2667 1470 717 350 70 391 984 424 231 246 154 19 0 0 0 0 0 0 0
0 0 0 0 0 15 7 460 895 1149 2199 2597 2828 2802 3375 3310 2776 2746 2716 2720 2894 3074 3359 3307 2270 1334 679 108 0 219 970 387 122 6 8 43 0 0 0 0 0 0 0
0 0 0 0 0 0 0 0 317 602 1156 1457 1942 2152 2513 3106 3360 3238 3126 3114 3307 3648 3657 2841 1779 970 548 0 0 0 961 418 32 0 0 0 0 0 0 0 0 0 0
0 0 0 0 0 0 0 0 0 0 52 958 978 691 2369 2321 2642 3279 3587 3485 3386 3311 2973 2076 1080 553 145 0 0 0 283 637 43 0 0 0 0 0 0 0 0 0 0
0 0 0 0 0 0 0 0 0 0 0 23 668 692 2362 2157 2279 2476 2536 2534 2745 2901 1951 1709 831 219 0 0 0 0 5 233 150 0 0 0 0 0 0 0 0 0 0
0 0 0 0 0 0 0 0 0 0 0 61 29 131 1265 1690 1421 1421 1018 1210 1481 595 537 1133 628 377 8 0 0 0 0 8 33 0 0 0 0 0 0 0 0 0 0
0 0 0 0 0 0 0 0 0 0 39 15 0 0 628 1107 504 339 209 151 4 0 14 388 370 206 0 0 0 0 0 0 0 0 0 0 0 0 0 0 0 0 0
0 0 0 0 0 0 0 0 2 1 94 12 0 0 262 1150 48 0 10 12 0 0 0 12 216 259 27 0 0 0 0 0 0 0 0 0 0 0 0 0 0 0 0
0 0 0 0 0 0 0 0 2 6 20 29 85 0 122 518 0 0 0 0 0 0 0 0 2 0 35 0 0 0 0 0 0 0 0 0 0 1 0 0 3 0 0